Location: Lansingburgh
(42.7845°N, 73.6696°W)
Time: 03:48:24
(UTC+00:00)

Meteor 2-12 Rocket - Pass Details

Date: 24 January 2020
Orbit: 936 x 957 km, 82.5° (Epoch: 25 February)

Event Time Altitude Azimuth Distance (km) Brightness Sun altitude
Rises 23:40:52 0° 180° (S) 3,582 7.6 -19.0°
Reaches altitude 10° 23:43:20 10° 178° (S) 2,641 6.8 -19.4°
Maximum altitude 23:49:20 73° 95° (E) 979 4.3 -20.5°
Drops below altitude 10° 23:55:23 10° 12° (NNE) 2,658 6.6 -21.6°
Sets 23:57:52 0° 11° (N) 3,608 7.3 -22.1°
